Tampa, FL

7:08 PM EDT on April 25, 2018 (GMT -0400)
Tampa International

Weather History for KTPA - December, 2013

Change the Weather History Date:

Monday, December 23, 2013

  Actual Average Record
Temperature  
Mean Temperature 75 °F 62 °F  
Max Temperature 80 °F 71 °F 82 °F (1948)
Min Temperature 70 °F 53 °F 28 °F (1989)
Degree Days  
Heating Degree Days 0 5  
Month to date heating degree days 27 93  
Since 1 July heating degree days 57 137  
Cooling Degree Days 10 2  
Month to date cooling degree days 136 62  
Year to date cooling degree days 3872 3592  
Growing Degree Days 25 (Base 50)    
Moisture  
Dew Point 70 °F    
Average Humidity 87    
Maximum Humidity 100    
Minimum Humidity 74    
Precipitation  
Precipitation 0.00 in 0.09 in 1.54 in (1953)
Month to date precipitation 0.25 1.86  
Year to date precipitation 51.92 45.69  
Sea Level Pressure  
Sea Level Pressure 30.14 in    
Wind  
Wind Speed 7 mph (South)    
Max Wind Speed 16 mph    
Max Gust Speed 21 mph    
Visibility 8 miles    
Events      
T = Trace of Precipitation, MM = Missing Value Source: NWS Daily Summary

Daily Weather History Graph

Daily Weather History Graph

Search for Another Location

Airport or City:

Astronomy

Dec. 23, 2013 Rise Set
Actual Time 7:18 AM EST 5:40 PM EST
Civil Twilight 6:52 AM EST 6:06 PM EST
Nautical Twilight 6:23 AM EST 6:35 PM EST
Astronomical Twilight 5:54 AM EST 7:04 PM EST
Moon 11:20 PM EST (12/23) 11:09 AM EST (12/23)
Length of Visible Light 11h 13m
Length of Day
10h 22m
Waning Gibbous, 68% of the Moon is Illuminated
Dec 23
Waning Gibbous
Dec 25
Last Quarter
Jan 1
New
Jan 7
First Quarter
Jan 15
Full

Hourly Weather History & Observations

Time (EST) Temp. Heat Index Dew Point Humidity Pressure Visibility Wind Dir Wind Speed Gust Speed Precip Events Conditions
12:53 AM 71.1 °F - 66.9 °F 87% 30.15 in 10.0 mi ESE 3.5 mph - N/A   Partly Cloudy
1:53 AM 71.1 °F - 66.9 °F 87% 30.14 in 10.0 mi Calm Calm - N/A   Clear
2:53 AM 70.0 °F - 66.9 °F 90% 30.13 in 10.0 mi Calm Calm - N/A   Clear
3:53 AM 70.0 °F - 66.9 °F 90% 30.13 in 9.0 mi SE 3.5 mph - N/A   Clear
4:53 AM 70.0 °F - 68.0 °F 93% 30.13 in 8.0 mi SE 4.6 mph - N/A   Partly Cloudy
5:53 AM 70.0 °F - 68.0 °F 93% 30.13 in 7.0 mi SE 4.6 mph - N/A   Mostly Cloudy
6:05 AM 69.8 °F - 68.0 °F 94% 30.14 in 7.0 mi SE 4.6 mph - N/A   Overcast
6:43 AM 69.8 °F - 69.8 °F 100% 30.14 in 1.0 mi SSE 3.5 mph - N/A   Overcast
6:53 AM 70.0 °F - 69.1 °F 97% 30.14 in 1.0 mi SE 3.5 mph - N/A   Overcast
7:53 AM 72.0 °F - 70.0 °F 93% 30.16 in 4.0 mi SSE 3.5 mph - N/A   Mostly Cloudy
8:51 AM 73.4 °F - 69.8 °F 88% 30.17 in 5.0 mi SE 3.5 mph - N/A   Overcast
8:53 AM 73.0 °F - 70.0 °F 90% 30.17 in 5.0 mi SSE 8.1 mph - N/A   Overcast
9:53 AM 75.0 °F - 71.1 °F 87% 30.18 in 7.0 mi SE 5.8 mph - N/A   Mostly Cloudy
10:53 AM 78.1 °F - 71.1 °F 79% 30.18 in 10.0 mi South 9.2 mph - N/A   Mostly Cloudy
10:58 AM 78.8 °F - 71.6 °F 78% 30.18 in 10.0 mi South 11.5 mph - N/A   Mostly Cloudy
11:46 AM 78.8 °F - 71.6 °F 78% 30.17 in 10.0 mi South 11.5 mph - N/A   Scattered Clouds
11:53 AM 80.1 °F 83.6 °F 71.1 °F 74% 30.17 in 10.0 mi South 12.7 mph - N/A   Scattered Clouds
12:53 PM 80.1 °F 83.6 °F 71.1 °F 74% 30.14 in 10.0 mi SSW 12.7 mph - N/A   Scattered Clouds
1:53 PM 80.1 °F 83.6 °F 71.1 °F 74% 30.12 in 10.0 mi SSW 12.7 mph - N/A   Scattered Clouds
2:53 PM 79.0 °F - 71.1 °F 77% 30.11 in 10.0 mi SSW 12.7 mph - N/A   Scattered Clouds
3:53 PM 79.0 °F - 71.1 °F 77% 30.11 in 10.0 mi SSW 11.5 mph - N/A   Scattered Clouds
4:53 PM 77.0 °F - 71.1 °F 82% 30.11 in 9.0 mi South 10.4 mph - N/A   Scattered Clouds
5:53 PM 73.9 °F - 71.1 °F 91% 30.13 in 8.0 mi SSW 6.9 mph - N/A   Scattered Clouds
6:53 PM 73.0 °F - 70.0 °F 90% 30.14 in 9.0 mi South 3.5 mph - N/A   Scattered Clouds
7:53 PM 72.0 °F - 70.0 °F 93% 30.15 in 8.0 mi South 4.6 mph - N/A   Scattered Clouds
8:53 PM 73.0 °F - 71.1 °F 93% 30.15 in 7.0 mi South 6.9 mph - N/A   Scattered Clouds
9:53 PM 72.0 °F - 71.1 °F 97% 30.14 in 7.0 mi South 9.2 mph - N/A   Mostly Cloudy
10:53 PM 72.0 °F - 71.1 °F 97% 30.14 in 7.0 mi South 8.1 mph - N/A   Mostly Cloudy
11:41 PM 71.6 °F - 71.6 °F 100% 30.14 in 7.0 mi South 8.1 mph - N/A   Overcast
11:53 PM 72.0 °F - 71.1 °F 97% 30.14 in 7.0 mi South 6.9 mph - N/A   Overcast